N750XC KSUS-KASE

Flight info

Callsign N750XC
Flight time N/A
Altitude 43000
Route OZARK8 HLV DORPH MMARY1
Aircraft C750/M-SBDE3FGHRWXY/S

Departure

Time 2026-04-26 23:50
Airport Spirit of St Louis Airport (KSUS)

Arrival

Time N/A
Airport Aspen-Pitkin County Airport (Sardy Field) (KASE)
Time Latitude Longitude Altitude Speed Heading
2026-04-26 23:37 38.66258 -90.64481 471 ft 0 kts 261°
2026-04-26 23:45 38.66244 -90.64486 470 ft 7 kts 168°
2026-04-26 23:45 38.66175 -90.64418 472 ft 14 kts 169°
2026-04-26 23:45 38.66119 -90.64532 468 ft 22 kts 258°
2026-04-26 23:46 38.66086 -90.64727 472 ft 22 kts 258°
2026-04-26 23:46 38.66056 -90.64908 473 ft 20 kts 258°
2026-04-26 23:46 38.66028 -90.65082 471 ft 20 kts 257°
2026-04-26 23:46 38.65998 -90.65260 467 ft 21 kts 258°
2026-04-26 23:47 38.65968 -90.65442 464 ft 21 kts 258°
2026-04-26 23:47 38.65940 -90.65614 466 ft 19 kts 258°
2026-04-26 23:47 38.65913 -90.65774 464 ft 18 kts 258°
2026-04-26 23:47 38.65888 -90.65924 466 ft 16 kts 258°
2026-04-26 23:48 38.65863 -90.65986 466 ft 6 kts 205°
2026-04-26 23:48 38.65849 -90.65987 467 ft 0 kts 174°
2026-04-26 23:48 38.65824 -90.65982 468 ft 8 kts 163°
2026-04-26 23:48 38.65784 -90.65887 468 ft 22 kts 81°
2026-04-26 23:49 38.65865 -90.65399 466 ft 106 kts 78°
2026-04-26 23:49 38.66062 -90.64229 638 ft 147 kts 80°
2026-04-26 23:49 38.66235 -90.62909 914 ft 161 kts 97°
2026-04-26 23:49 38.65531 -90.61703 856 ft 190 kts 145°
2026-04-26 23:50 38.64735 -90.61145 877 ft 202 kts 150°
2026-04-26 23:50 38.63492 -90.60270 923 ft 195 kts 152°
2026-04-26 23:50 38.62290 -90.59393 1037 ft 209 kts 147°
2026-04-26 23:50 38.60937 -90.58404 1480 ft 236 kts 149°
2026-04-26 23:51 38.59494 -90.57317 2369 ft 237 kts 148°
2026-04-26 23:51 38.58056 -90.56213 2996 ft 247 kts 149°
2026-04-26 23:51 38.56588 -90.55059 3009 ft 249 kts 148°
2026-04-26 23:51 38.55132 -90.53908 3004 ft 246 kts 148°
2026-04-26 23:52 38.53887 -90.52350 3040 ft 270 kts 120°
2026-04-26 23:52 38.53679 -90.49995 4003 ft 270 kts 81°
2026-04-26 23:52 38.54664 -90.47999 5283 ft 274 kts 46°
2026-04-26 23:52 38.56432 -90.46952 6062 ft 292 kts 12°
2026-04-26 23:53 38.58460 -90.46892 7037 ft 292 kts 359°
2026-04-26 23:53 38.60504 -90.46988 8013 ft 296 kts 358°
2026-04-26 23:53 38.62571 -90.47054 9071 ft 298 kts 357°
2026-04-26 23:53 38.64652 -90.47209 9940 ft 301 kts 345°
2026-04-26 23:54 38.66510 -90.48442 10384 ft 312 kts 316°
2026-04-26 23:54 38.67798 -90.50782 10436 ft 335 kts 294°
2026-04-26 23:54 38.68713 -90.53605 10817 ft 347 kts 289°
2026-04-26 23:54 38.69651 -90.56408 11622 ft 348 kts 293°
2026-04-26 23:55 38.70859 -90.59120 12331 ft 353 kts 300°
2026-04-26 23:55 38.72222 -90.61747 13045 ft 355 kts 301°
2026-04-26 23:55 38.73517 -90.64451 13748 ft 357 kts 297°
2026-04-26 23:55 38.74733 -90.67243 14351 ft 360 kts 297°
2026-04-26 23:56 38.75977 -90.70008 14914 ft 357 kts 298°
2026-04-26 23:56 38.77281 -90.72781 15230 ft 368 kts 299°
2026-04-26 23:56 38.78597 -90.75601 15914 ft 369 kts 298°
2026-04-26 23:56 38.79897 -90.78460 16566 ft 372 kts 298°
2026-04-26 23:57 38.81207 -90.81340 17217 ft 375 kts 298°
2026-04-26 23:57 38.82539 -90.84237 17875 ft 379 kts 298°
2026-04-26 23:57 38.83886 -90.87164 18502 ft 383 kts 298°
2026-04-26 23:57 38.85236 -90.90118 19125 ft 385 kts 298°
2026-04-26 23:58 38.86594 -90.93098 19752 ft 388 kts 298°
2026-04-26 23:58 38.87966 -90.96099 20393 ft 392 kts 298°
2026-04-26 23:58 38.89349 -90.99127 21025 ft 395 kts 298°
2026-04-26 23:58 38.90745 -91.02192 21643 ft 399 kts 298°
2026-04-26 23:59 38.92152 -91.05284 22278 ft 402 kts 298°
2026-04-26 23:59 38.93572 -91.08406 22896 ft 406 kts 298°
2026-04-26 23:59 38.94982 -91.11509 23494 ft 409 kts 298°
2026-04-26 23:59 38.96269 -91.14773 23973 ft 410 kts 290°
2026-04-27 00:00 38.97125 -91.18251 24643 ft 407 kts 282°
2026-04-27 00:00 38.97678 -91.21819 25153 ft 409 kts 279°
2026-04-27 00:00 38.98231 -91.25424 25654 ft 412 kts 280°
2026-04-27 00:00 38.98800 -91.29043 26165 ft 415 kts 280°
2026-04-27 00:01 38.99363 -91.32690 26671 ft 417 kts 280°
2026-04-27 00:01 38.99921 -91.36372 27174 ft 420 kts 280°
2026-04-27 00:01 39.00483 -91.40066 27668 ft 423 kts 280°
2026-04-27 00:01 39.01054 -91.43790 28165 ft 426 kts 280°
2026-04-27 00:02 39.01628 -91.47548 28655 ft 429 kts 280°
2026-04-27 00:02 39.02200 -91.51325 29152 ft 432 kts 280°
2026-04-27 00:02 39.02776 -91.55127 29728 ft 432 kts 280°
2026-04-27 00:02 39.03351 -91.58924 30279 ft 432 kts 280°
2026-04-27 00:03 39.03918 -91.62685 30697 ft 434 kts 279°
2026-04-27 00:03 39.04491 -91.66498 31295 ft 431 kts 279°
2026-04-27 00:03 39.05057 -91.70256 31983 ft 426 kts 279°
2026-04-27 00:03 39.05616 -91.73987 32641 ft 422 kts 279°
2026-04-27 00:04 39.06167 -91.77682 33313 ft 419 kts 279°
2026-04-27 00:04 39.06713 -91.81343 34000 ft 415 kts 279°
2026-04-27 00:04 39.07252 -91.84968 34622 ft 410 kts 279°
2026-04-27 00:04 39.07785 -91.88559 35234 ft 406 kts 279°
2026-04-27 00:05 39.08310 -91.92103 35892 ft 401 kts 278°
2026-04-27 00:05 39.08828 -91.95609 36513 ft 398 kts 278°
2026-04-27 00:05 39.09343 -91.99099 37143 ft 394 kts 278°
2026-04-27 00:05 39.09850 -92.02542 37756 ft 390 kts 278°
2026-04-27 00:06 39.10353 -92.05964 38370 ft 387 kts 278°
2026-04-27 00:06 39.10849 -92.09356 38867 ft 385 kts 277°
2026-04-27 00:06 39.11334 -92.12754 39175 ft 386 kts 276°
2026-04-27 00:06 39.11629 -92.16197 39466 ft 387 kts 273°
2026-04-27 00:07 39.11908 -92.19656 39798 ft 389 kts 274°
2026-04-27 00:07 39.12209 -92.23130 40119 ft 391 kts 275°
2026-04-27 00:07 39.12501 -92.26617 40462 ft 393 kts 275°
2026-04-27 00:07 39.12782 -92.30126 40808 ft 394 kts 274°
2026-04-27 00:08 39.13063 -92.33628 41291 ft 392 kts 274°
2026-04-27 00:08 39.13350 -92.37122 41677 ft 393 kts 275°
2026-04-27 00:08 39.13636 -92.40633 42050 ft 394 kts 275°
2026-04-27 00:08 39.13918 -92.44148 42424 ft 395 kts 275°
2026-04-27 00:09 39.14200 -92.47670 42795 ft 396 kts 275°
2026-04-27 00:09 39.14485 -92.51231 42839 ft 404 kts 276°
2026-04-27 00:09 39.15066 -92.58527 42859 ft 420 kts 275°
2026-04-27 00:10 39.15668 -92.66164 42863 ft 436 kts 275°
2026-04-27 00:10 39.16284 -92.74039 42852 ft 447 kts 275°
2026-04-27 00:11 39.16907 -92.82081 42855 ft 452 kts 275°
2026-04-27 00:11 39.17527 -92.90152 42857 ft 453 kts 274°
2026-04-27 00:12 39.18143 -92.98234 42856 ft 453 kts 274°
2026-04-27 00:12 39.18753 -93.06331 42844 ft 453 kts 274°
2026-04-27 00:13 39.19356 -93.14410 42852 ft 453 kts 274°
2026-04-27 00:13 39.19954 -93.22503 42854 ft 453 kts 274°
2026-04-27 00:14 39.20547 -93.30592 42851 ft 453 kts 274°
2026-04-27 00:14 39.21134 -93.38682 42843 ft 453 kts 274°
2026-04-27 00:15 39.21712 -93.46725 42835 ft 453 kts 274°
2026-04-27 00:15 39.22288 -93.54826 42824 ft 453 kts 274°
2026-04-27 00:16 39.22858 -93.62916 42811 ft 453 kts 274°
2026-04-27 00:16 39.23423 -93.71008 42811 ft 453 kts 274°
2026-04-27 00:17 39.23982 -93.79113 42811 ft 453 kts 273°
2026-04-27 00:17 39.24537 -93.87236 42812 ft 456 kts 273°
2026-04-27 00:18 39.25089 -93.95374 42805 ft 455 kts 273°
2026-04-27 00:18 39.25632 -94.03505 42797 ft 455 kts 273°
2026-04-27 00:19 39.26172 -94.11648 42785 ft 455 kts 273°
2026-04-27 00:19 39.26704 -94.19782 42788 ft 458 kts 273°
2026-04-27 00:20 39.27240 -94.28037 42786 ft 462 kts 273°
2026-04-27 00:20 39.27773 -94.36348 42783 ft 465 kts 272°
2026-04-27 00:21 39.28299 -94.44647 42783 ft 464 kts 272°
2026-04-27 00:21 39.28819 -94.52945 42781 ft 464 kts 272°
2026-04-27 00:22 39.29334 -94.61263 42777 ft 464 kts 272°
2026-04-27 00:22 39.29841 -94.69559 42778 ft 464 kts 272°
2026-04-27 00:23 39.30344 -94.77871 42775 ft 464 kts 272°
2026-04-27 00:23 39.30839 -94.86156 42770 ft 464 kts 272°
2026-04-27 00:24 39.31330 -94.94465 42777 ft 464 kts 272°
2026-04-27 00:24 39.31813 -95.02751 42780 ft 467 kts 272°
2026-04-27 00:25 39.32298 -95.11112 42775 ft 467 kts 272°
2026-04-27 00:25 39.32773 -95.19485 42769 ft 467 kts 271°
2026-04-27 00:26 39.33237 -95.27855 42774 ft 467 kts 272°
2026-04-27 00:26 39.33710 -95.36238 42764 ft 469 kts 272°
2026-04-27 00:27 39.34167 -95.44693 42765 ft 473 kts 272°
2026-04-27 00:27 39.34630 -95.53190 42764 ft 474 kts 271°
2026-04-27 00:28 39.35074 -95.61587 42761 ft 473 kts 271°
2026-04-27 00:28 39.35522 -95.70078 42755 ft 474 kts 271°
2026-04-27 00:29 39.35961 -95.78589 42768 ft 478 kts 272°
2026-04-27 00:29 39.36401 -95.87184 42768 ft 479 kts 272°
2026-04-27 00:30 39.36831 -95.95719 42766 ft 478 kts 271°
2026-04-27 00:30 39.37188 -96.02907 42768 ft 478 kts 271°
2026-04-27 00:31 39.37609 -96.11505 42764 ft 479 kts 272°
2026-04-27 00:31 39.38022 -96.20074 42765 ft 481 kts 271°
2026-04-27 00:32 39.38430 -96.28689 42764 ft 480 kts 271°
2026-04-27 00:32 39.38835 -96.37323 42762 ft 480 kts 271°
2026-04-27 00:33 39.39230 -96.45946 42748 ft 480 kts 271°
2026-04-27 00:33 39.39620 -96.54541 42773 ft 478 kts 271°
2026-04-27 00:34 39.40003 -96.63165 42759 ft 481 kts 271°
2026-04-27 00:34 39.40381 -96.71795 42755 ft 481 kts 271°
2026-04-27 00:35 39.40752 -96.80427 42758 ft 480 kts 271°
2026-04-27 00:35 39.41115 -96.88994 42755 ft 479 kts 271°
2026-04-27 00:36 39.41470 -96.97580 42753 ft 479 kts 271°
2026-04-27 00:36 39.41822 -97.06176 42744 ft 479 kts 271°
2026-04-27 00:37 39.42166 -97.14776 42751 ft 479 kts 271°
2026-04-27 00:37 39.42505 -97.23376 42751 ft 479 kts 271°
2026-04-27 00:38 39.42837 -97.31990 42751 ft 479 kts 271°
2026-04-27 00:38 39.43163 -97.40600 42743 ft 479 kts 271°
2026-04-27 00:39 39.43482 -97.49217 42753 ft 479 kts 271°
2026-04-27 00:39 39.43793 -97.57759 42759 ft 479 kts 271°
2026-04-27 00:40 39.44098 -97.66359 42760 ft 478 kts 270°
2026-04-27 00:40 39.44399 -97.74954 42753 ft 478 kts 270°
2026-04-27 00:41 39.44692 -97.83543 42760 ft 478 kts 270°
2026-04-27 00:41 39.44980 -97.92141 42758 ft 478 kts 270°
2026-04-27 00:42 39.45260 -98.00728 42757 ft 476 kts 270°
2026-04-27 00:42 39.45533 -98.09274 42754 ft 475 kts 270°
2026-04-27 00:43 39.45799 -98.17783 42754 ft 476 kts 270°
2026-04-27 00:43 39.46058 -98.26321 42755 ft 476 kts 270°
2026-04-27 00:44 39.46314 -98.34906 42773 ft 476 kts 270°
2026-04-27 00:44 39.46562 -98.43483 42756 ft 476 kts 270°
2026-04-27 00:45 39.46805 -98.52057 42757 ft 476 kts 270°
2026-04-27 00:45 39.47039 -98.60568 42756 ft 476 kts 270°
2026-04-27 00:46 39.47269 -98.69138 42764 ft 477 kts 270°
2026-04-27 00:46 39.47491 -98.77708 42789 ft 475 kts 270°
2026-04-27 00:47 39.47709 -98.86315 42762 ft 478 kts 270°
2026-04-27 00:47 39.47922 -98.94937 42758 ft 478 kts 270°
2026-04-27 00:48 39.48124 -99.03482 42750 ft 478 kts 270°
2026-04-27 00:48 39.48323 -99.12075 42768 ft 477 kts 270°
2026-04-27 00:49 39.48515 -99.20660 42768 ft 477 kts 270°
2026-04-27 00:49 39.48702 -99.29265 42771 ft 477 kts 270°
2026-04-27 00:50 39.48968 -99.42152 42776 ft 477 kts 269°
2026-04-27 00:51 39.49139 -99.50756 42768 ft 478 kts 269°
2026-04-27 00:51 39.49302 -99.59363 42770 ft 478 kts 269°
2026-04-27 00:52 39.49460 -99.67965 42777 ft 478 kts 269°
2026-04-27 00:52 39.49610 -99.76512 42777 ft 478 kts 269°
2026-04-27 00:53 39.49755 -99.85113 42782 ft 479 kts 269°
2026-04-27 00:53 39.49894 -99.93752 42776 ft 479 kts 269°
2026-04-27 00:54 39.50027 -100.02384 42769 ft 479 kts 269°
2026-04-27 00:54 39.50153 -100.11004 42765 ft 479 kts 269°
2026-04-27 00:55 39.50273 -100.19631 42760 ft 479 kts 269°
2026-04-27 00:55 39.50385 -100.28224 42751 ft 475 kts 269°
2026-04-27 00:56 39.50492 -100.36775 42752 ft 476 kts 269°
2026-04-27 00:56 39.50592 -100.45335 42747 ft 475 kts 269°
2026-04-27 00:57 39.50685 -100.53891 42755 ft 476 kts 269°
2026-04-27 00:57 39.50773 -100.62411 42747 ft 475 kts 269°
2026-04-27 00:58 39.50850 -100.70647 42755 ft 475 kts 269°
2026-04-27 00:58 39.50925 -100.79206 42746 ft 475 kts 269°
2026-04-27 00:59 39.50994 -100.87763 42755 ft 475 kts 268°
2026-04-27 00:59 39.51056 -100.96312 42767 ft 475 kts 268°
2026-04-27 01:00 39.51113 -101.04894 42777 ft 477 kts 268°
2026-04-27 01:00 39.51163 -101.13422 42772 ft 476 kts 268°
2026-04-27 01:01 39.51207 -101.22001 42769 ft 476 kts 268°
2026-04-27 01:01 39.51244 -101.30589 42745 ft 477 kts 268°
2026-04-27 01:02 39.51276 -101.39201 42731 ft 478 kts 268°
2026-04-27 01:02 39.51301 -101.47819 42728 ft 478 kts 268°
2026-04-27 01:03 39.51319 -101.56430 42736 ft 478 kts 268°
2026-04-27 01:03 39.51331 -101.65038 42741 ft 478 kts 268°
2026-04-27 01:04 39.51337 -101.73656 42742 ft 477 kts 268°
2026-04-27 01:04 39.51336 -101.82259 42740 ft 477 kts 268°
2026-04-27 01:05 39.51330 -101.90859 42745 ft 478 kts 268°
2026-04-27 01:05 39.51317 -101.99457 42741 ft 478 kts 268°
2026-04-27 01:06 39.51297 -102.08076 42727 ft 478 kts 267°
2026-04-27 01:06 39.51271 -102.16644 42722 ft 478 kts 267°
2026-04-27 01:07 39.51240 -102.25253 42725 ft 478 kts 267°
2026-04-27 01:07 39.51200 -102.33862 42715 ft 478 kts 267°
2026-04-27 01:08 39.51156 -102.42479 42710 ft 479 kts 267°
2026-04-27 01:08 39.51104 -102.51131 42708 ft 481 kts 267°
2026-04-27 01:09 39.51046 -102.59783 42706 ft 480 kts 267°
2026-04-27 01:09 39.50982 -102.68439 42706 ft 480 kts 267°
2026-04-27 01:10 39.50912 -102.77081 42720 ft 480 kts 267°
2026-04-27 01:10 39.50834 -102.85724 42721 ft 479 kts 267°
2026-04-27 01:11 39.50751 -102.94346 42719 ft 479 kts 267°
2026-04-27 01:11 39.50661 -103.02975 42718 ft 479 kts 267°
2026-04-27 01:12 39.50565 -103.11597 42719 ft 479 kts 267°
2026-04-27 01:12 39.50462 -103.20239 42716 ft 482 kts 267°
2026-04-27 01:13 39.50771 -103.28920 42715 ft 483 kts 272°
2026-04-27 01:13 39.51247 -103.37609 42719 ft 483 kts 271°
2026-04-27 01:14 39.51731 -103.46087 42720 ft 483 kts 271°
2026-04-27 01:14 39.52212 -103.54791 42708 ft 485 kts 271°
2026-04-27 01:15 39.52688 -103.63502 42710 ft 484 kts 271°
2026-04-27 01:15 39.53158 -103.72195 42699 ft 484 kts 271°
2026-04-27 01:16 39.53617 -103.80843 42691 ft 484 kts 271°
2026-04-27 01:16 39.54075 -103.89571 42692 ft 486 kts 271°
2026-04-27 01:17 39.54450 -103.96838 42691 ft 486 kts 271°
2026-04-27 01:17 39.54897 -104.05567 42690 ft 485 kts 270°
2026-04-27 01:18 39.55462 -104.14303 42686 ft 486 kts 272°
2026-04-27 01:18 39.56061 -104.23032 42698 ft 486 kts 272°
2026-04-27 01:19 39.56663 -104.31774 42703 ft 487 kts 272°
2026-04-27 01:19 39.57254 -104.40510 42713 ft 487 kts 271°
2026-04-27 01:20 39.57838 -104.49227 42711 ft 489 kts 272°
2026-04-27 01:20 39.58422 -104.58014 42708 ft 489 kts 272°
2026-04-27 01:21 39.59381 -104.66680 42138 ft 475 kts 276°
2026-04-27 01:21 39.59904 -104.70833 41538 ft 459 kts 275°
2026-04-27 01:21 39.60400 -104.74917 40954 ft 463 kts 275°
2026-04-27 01:21 39.60907 -104.79046 40343 ft 457 kts 276°
2026-04-27 01:22 39.61419 -104.83054 39750 ft 446 kts 276°
2026-04-27 01:22 39.61916 -104.87003 39173 ft 441 kts 275°
2026-04-27 01:22 39.62395 -104.90941 38595 ft 444 kts 275°
2026-04-27 01:22 39.62879 -104.94916 37950 ft 448 kts 276°
2026-04-27 01:23 39.63371 -104.98879 37368 ft 451 kts 276°
2026-04-27 01:23 39.63869 -105.02902 36729 ft 453 kts 276°
2026-04-27 01:23 39.64363 -105.06946 36135 ft 453 kts 276°
2026-04-27 01:23 39.64855 -105.11044 35523 ft 454 kts 275°
2026-04-27 01:24 39.65305 -105.15043 34938 ft 454 kts 275°
2026-04-27 01:24 39.65751 -105.19104 34334 ft 455 kts 275°
2026-04-27 01:24 39.66213 -105.23168 33743 ft 456 kts 275°
2026-04-27 01:24 39.66682 -105.27239 33106 ft 457 kts 275°
2026-04-27 01:25 39.67143 -105.31312 32493 ft 455 kts 275°
2026-04-27 01:25 39.67594 -105.35365 31890 ft 453 kts 275°
2026-04-27 01:25 39.67984 -105.39410 31267 ft 448 kts 270°
2026-04-27 01:25 39.67774 -105.43404 30687 ft 441 kts 257°
2026-04-27 01:26 39.66953 -105.47212 30113 ft 437 kts 249°
2026-04-27 01:26 39.65962 -105.50940 29515 ft 435 kts 249°
2026-04-27 01:26 39.64989 -105.54632 28928 ft 430 kts 249°
2026-04-27 01:26 39.64034 -105.58295 28366 ft 427 kts 249°
2026-04-27 01:27 39.63079 -105.61934 27799 ft 424 kts 249°
2026-04-27 01:27 39.62137 -105.65492 27270 ft 406 kts 249°
2026-04-27 01:27 39.61255 -105.68834 26744 ft 388 kts 249°
2026-04-27 01:27 39.60503 -105.72206 26311 ft 381 kts 253°
2026-04-27 01:28 39.59815 -105.75489 25956 ft 383 kts 252°
2026-04-27 01:28 39.59079 -105.78859 25567 ft 383 kts 252°
2026-04-27 01:28 39.58376 -105.82128 25202 ft 381 kts 252°
2026-04-27 01:28 39.57681 -105.85427 24828 ft 378 kts 253°
2026-04-27 01:29 39.56986 -105.88710 24449 ft 377 kts 252°
2026-04-27 01:29 39.56285 -105.91971 24077 ft 374 kts 252°
2026-04-27 01:29 39.55589 -105.95210 23791 ft 371 kts 253°
2026-04-27 01:29 39.54899 -105.98435 23451 ft 371 kts 253°
2026-04-27 01:30 39.54210 -106.01651 23065 ft 368 kts 253°
2026-04-27 01:30 39.53528 -106.04823 22680 ft 363 kts 253°
2026-04-27 01:30 39.53150 -106.08060 22287 ft 366 kts 266°
2026-04-27 01:30 39.53249 -106.11328 21965 ft 364 kts 270°
2026-04-27 01:31 39.53364 -106.14612 21605 ft 364 kts 270°
2026-04-27 01:31 39.53458 -106.17854 21240 ft 358 kts 270°
2026-04-27 01:31 39.53549 -106.21079 20887 ft 357 kts 270°
2026-04-27 01:31 39.53649 -106.24267 20527 ft 353 kts 270°
2026-04-27 01:32 39.53748 -106.27446 20179 ft 352 kts 270°
2026-04-27 01:32 39.53843 -106.30605 19829 ft 349 kts 270°
2026-04-27 01:32 39.53932 -106.33755 19484 ft 349 kts 270°
2026-04-27 01:32 39.54023 -106.36874 19140 ft 343 kts 270°
2026-04-27 01:33 39.54113 -106.39859 18813 ft 321 kts 270°
2026-04-27 01:33 39.54195 -106.42672 18492 ft 304 kts 269°
2026-04-27 01:33 39.54268 -106.45381 18197 ft 300 kts 269°
2026-04-27 01:33 39.54331 -106.48074 17879 ft 297 kts 269°
2026-04-27 01:34 39.54397 -106.50740 17575 ft 296 kts 269°
2026-04-27 01:34 39.54468 -106.53404 17290 ft 297 kts 269°
2026-04-27 01:34 39.54532 -106.56069 16995 ft 296 kts 269°
2026-04-27 01:34 39.54595 -106.58743 16637 ft 293 kts 269°